Terminal Aerodrome Forecast
Issued by NWS

Current Version | Previous Version | Graphics & Text | Print | Product List | Glossary On
Versions: 1 2 3 4 5 6 7 8 9 10 11 12 13 14 15 16 17 18 19
000
FTUS41 KRNK 251619 AAB
TAFLWB
TAF AMD
KLWB 251619Z 2516/2612 22003KT P6SM OVC025
     FM252000 31005G17KT P6SM OVC020
     FM261000 VRB03KT P6SM OVC004=

USA.gov is the U.S. government's official web portal to all federal, state and local government web resources and services.